Temperature
30 31 31 31 32 32 32 32 31 31 31 30 30 29 28 28 27 26 26 25 24 23 22 22 21 21 20 20 19 19 19 18 18 18 18 18 17 17 17 17 16 16 16 16
29 30 31 31 31 32 32 32 31 31 30 30 29 29 28 27 27 26 25 24 23 22 22 21 21 20 20 20 19 19 19 18 18 18 17 17 17 17 16 17 16 16 16 16
28 29 30 29 31 31 31 31 31 30 29 29 28 28 27 27 26 25 25 24 23 22 21 21 20 20 19 19 19 19 18 18 17 17 17 17 17 16 16 16 16 16 16 16
27 28 26 29 31 31 31 30 30 29 28 28 27 27 26 25 25 24 24 23 22 22 21 21 20 20 19 19 19 18 18 18 17 17 17 16 16 16 16 16 16 16 16 16
27 27 27 29 30 30 29 28 28 27 27 27 26 26 25 24 24 23 22 22 22 21 21 20 20 19 19 18 18 18 17 17 17 16 16 16 16 16 16 16 16 16 16 16
26 26 26 27 29 29 29 27 27 26 26 26 26 25 24 23 23 22 22 21 21 20 20 20 19 19 18 18 18 17 17 17 16 16 16 15 15 15 15 15 15 15 15 15
25 25 26 26 28 28 26 25 25 25 25 24 24 24 23 22 21 21 20 20 20 20 19 19 19 18 18 18 17 17 16 16 16 16 15 15 15 15 15 15 15 15 15 15
25 24 24 25 26 25 24 24 24 23 23 23 22 22 21 21 20 20 19 19 19 19 18 18 18 17 17 17 16 16 16 16 16 15 15 15 15 15 15 15 15 15 15 15
24 24 24 24 24 24 23 23 23 22 22 22 22 21 21 20 19 19 19 18 18 18 17 17 17 17 16 16 16 15 15 15 15 15 15 15 15 15 15 15 15 15 15 15
23 24 24 24 24 23 23 22 22 22 22 21 21 20 20 19 19 18 18 17 17 17 17 16 16 16 16 15 15 15 15 14 14 15 14 15 15 15 15 15 15 15 15 14
23 23 23 23 22 22 22 22 22 21 21 21 20 20 19 18 18 17 17 17 16 16 16 16 16 15 15 15 14 14 14 14 14 14 14 14 14 14 14 14 15 15 14 14
22 22 22 22 21 21 21 21 21 20 20 20 19 19 18 17 17 17 16 16 16 15 15 15 15 15 14 14 14 14 13 13 13 14 14 14 14 14 14 14 14 14 14 14
21 20 21 20 20 20 20 20 20 19 19 19 18 18 17 16 16 16 15 15 15 15 15 15 14 14 14 14 14 13 13 13 13 13 14 14 14 14 14 14 14 14 14 14
19 19 19 19 19 19 19 19 19 19 18 18 17 17 16 16 15 15 15 14 14 14 14 14 14 14 14 14 13 13 13 13 13 13 13 14 14 14 14 14 14 14 13 13
18 18 19 19 18 18 18 18 18 18 17 17 16 16 15 15 15 14 14 14 14 14 14 14 13 13 13 13 13 13 13 13 13 13 13 13 13 14 14 14 13 13 13 13
18 18 18 18 18 18 18 18 18 17 16 16 15 15 15 14 14 14 14 14 14 13 13 13 13 13 13 13 12 12 13 13 13 13 13 13 13 13 13 13 13 13 13 13
17 17 17 17 17 17 17 17 17 16 16 15 15 14 14 14 14 14 13 13 13 13 13 13 12 12 12 12 12 12 12 13 13 13 13 13 13 13 13 13 13 13 13 12
17 17 17 17 17 17 17 16 16 15 15 15 14 14 14 13 13 13 13 13 13 13 12 12 12 12 12 12 12 12 12 13 13 13 13 12 13 13 13 13 12 12 12 12
17 16 16 16 16 16 16 16 15 15 15 14 14 14 13 13 13 13 13 12 12 12 12 12 12 12 12 12 12 12 12 12 12 12 12 12 12 12 12 12 12 12 12 12
16 16 16 16 16 16 15 15 15 15 14 14 14 13 13 13 13 12 12 12 12 12 12 12 12 12 12 12 12 12 12 12 12 12 12 12 12 12 12 12 12 12 11 11
15 15 15 15 15 15 15 15 14 14 14 14 13 13 13 12 12 12 12 12 12 12 11 11 11 11 11 11 11 12 12 12 12 12 12 12 12 12 12 11 11 11 11 11
15 15 15 15 14 14 14 14 14 13 13 13 13 12 12 12 12 12 12 11 11 11 11 11 11 11 11 11 11 11 11 11 11 11 11 11 11 11 11 11 11 11 10 10
14 14 14 14 14 14 14 13 13 13 13 12 12 12 12 12 12 12 11 11 11 11 11 11 11 11 11 11 11 11 11 11 11 11 11 11 11 11 11 10 10 10 10 10
13 13 13 13 13 13 13 13 13 13 12 12 12 12 12 12 12 12 11 11 11 11 11 10 10 10 10 10 10 10 10 10 10 10 10 11 10 10 10 10 10 10 10 10
13 13 13 13 13 13 13 13 13 13 12 12 12 12 12 12 12 12 11 11 11 11 10 10 10 10 10 10 10 10 10 10 10 10 10 10 10 10 10 10 10 9 9 9
13 13 13 13 13 13 13 13 13 13 13 12 12 12 12 12 12 11 11 11 11 11 10 10 10 10 10 10 10 10 10 10 10 10 10 9 9 9 9 9 9 9 9 9
13 13 13 13 13 13 13 13 13 13 12 12 12 12 12 12 11 11 11 11 11 11 10 10 10 10 10 10 10 9 9 9 9 9 9 9 9 9 9 9 9 9 8 8
Wind_Speed
16 16 16 15 15 14 14 14 14 9 6 2 2 4 4 5 4 4 5 5 4 5 4 4 4 4 4 5 5 4 4 4 4 3 2 2 2 3 3 3 4 3 3 3
16 17 17 17 15 14 15 14 13 9 6 1 3 4 4 3 4 4 4 4 4 5 5 4 4 4 3 3 4 4 3 3 3 3 3 3 3 3 3 3 3 2 3 3
14 15 16 16 15 14 12 12 10 7 3 2 3 2 2 2 2 3 3 3 3 4 4 4 3 3 3 3 2 2 2 2 3 3 3 3 3 2 3 3 3 3 3 2
13 13 16 12 10 10 9 6 4 2 2 3 3 2 4 2 2 3 2 2 2 2 3 4 3 3 3 2 3 3 2 2 2 3 3 3 3 2 2 3 3 3 3 3
11 14 15 12 8 8 7 2 4 4 4 2 2 3 4 5 4 3 2 2 1 1 1 2 3 3 3 3 3 3 3 2 2 3 3 2 2 2 3 3 3 3 3 3
11 13 14 8 6 6 5 3 4 4 4 4 2 1 1 4 4 3 3 2 2 1 1 2 3 3 2 2 2 2 2 2 2 2 3 3 3 3 3 3 4 5 4 4
13 14 10 7 7 6 6 2 5 5 5 5 5 3 2 3 4 4 3 2 2 2 1 1 2 2 2 1 1 1 1 1 2 2 3 4 3 3 4 5 5 5 5 5
10 12 7 7 6 4 4 5 6 6 6 5 4 3 2 3 4 4 3 3 2 2 2 2 2 2 1 0 0 0 0 1 2 3 5 4 3 4 5 6 6 6 6 5
5 4 1 4 3 4 4 4 5 5 6 4 3 2 1 2 2 2 2 2 2 2 2 1 2 1 1 1 1 1 1 2 3 4 4 3 5 5 5 5 6 5 5 5
5 3 3 4 3 3 4 5 5 5 5 4 3 2 1 1 1 1 0 1 1 1 1 1 1 1 1 1 1 0 2 2 3 4 4 4 4 5 5 5 5 4 3 4
6 6 6 4 4 5 5 5 5 5 4 4 3 2 1 1 0 1 1 0 0 0 0 0 1 1 1 1 1 2 2 3 4 4 4 3 4 4 4 3 3 3 3 3
6 5 6 5 5 6 5 5 5 5 4 4 3 2 1 1 1 0 1 1 1 1 1 1 1 0 0 0 1 2 3 4 4 4 4 3 3 3 3 3 3 3 3 2
6 7 7 7 6 6 5 5 4 4 3 3 3 2 1 1 0 1 0 1 1 2 2 1 1 1 0 1 1 3 4 4 5 5 5 4 3 3 3 3 3 4 4 3
6 6 6 6 5 4 5 5 4 3 3 2 2 1 1 1 1 0 1 1 1 2 2 2 2 2 1 1 2 4 5 5 5 5 5 4 4 4 4 4 3 2 3 5
7 7 6 6 5 4 4 3 3 2 1 1 2 2 2 1 0 1 1 1 1 2 2 2 2 2 2 2 3 5 5 4 4 5 5 5 4 4 4 4 3 2 1 2
8 8 5 4 5 4 4 3 3 1 0 1 1 1 1 1 1 2 2 1 2 2 2 1 2 3 3 3 4 5 4 5 5 5 5 4 4 4 4 3 3 2 1 1
7 6 4 3 4 3 3 2 1 1 1 1 1 2 2 2 2 2 2 2 1 2 2 2 3 3 4 4 5 5 5 4 6 5 4 4 4 3 4 3 2 2 2 1
4 4 4 4 3 3 2 1 0 1 1 1 1 1 2 2 2 2 2 2 1 1 2 2 3 4 4 5 5 5 5 5 4 4 3 3 4 4 3 3 3 2 2 0
3 4 4 3 2 2 1 1 1 1 1 1 0 1 2 2 2 2 2 2 2 2 2 2 2 3 3 4 5 4 5 5 4 3 3 2 3 3 3 3 2 2 1 0
3 4 3 3 2 2 1 1 1 1 0 1 1 1 1 2 3 3 3 2 2 3 3 2 2 3 3 4 4 4 4 4 3 3 2 3 3 3 3 2 2 2 1 0
3 3 3 2 3 3 2 1 1 1 1 1 1 1 1 2 2 2 2 2 2 3 3 2 2 3 3 4 5 4 4 3 3 3 3 3 3 2 2 2 2 2 1 1
3 3 3 2 2 2 3 2 2 2 2 2 2 2 2 2 2 2 2 2 2 2 2 2 2 3 4 5 4 4 4 3 3 2 2 2 2 2 2 2 1 1 1 0
3 3 2 2 1 1 1 1 1 1 1 1 2 2 2 2 2 2 3 2 2 1 1 2 3 3 4 4 4 4 4 3 3 2 2 2 2 2 2 2 1 1 1 1
2 2 2 2 2 2 1 2 2 1 1 1 1 2 2 2 2 2 1 0 1 0 1 1 0 2 3 3 4 4 3 3 3 3 2 2 2 1 2 2 1 1 1 2
2 2 2 2 2 2 1 1 1 1 2 2 1 1 2 2 2 2 1 1 1 1 1 2 3 3 2 3 3 3 3 2 3 3 3 3 2 2 2 2 2 2 2 2
2 2 2 2 2 2 2 1 1 1 2 2 2 1 1 1 1 1 1 1 1 1 2 1 1 2 2 2 2 3 3 3 2 1 2 2 2 2 2 2 2 2 2 2
2 2 1 2 2 2 2 2 2 2 3 3 3 3 2 2 1 2 2 1 1 1 1 1 1 1 2 2 2 2 2 2 2 2 2 2 2 3 3 3 2 1 1 2
Wind_Direction
269 273 275 274 272 266 258 264 270 271 265 243 147 127 119 122 133 150 136 130 130 135 142 144 150 157 172 176 177 179 181 189 193 191 190 206 209 214 228 243 240 231 237 250
268 267 271 269 263 267 267 263 267 264 272 67 85 100 117 133 140 141 137 142 139 134 139 149 156 165 167 169 166 166 179 193 185 188 198 212 211 215 222 237 249 245 247 254
267 269 273 265 266 263 265 264 271 274 302 70 67 70 93 124 134 124 139 141 141 148 154 154 150 145 155 146 146 153 171 180 191 195 202 217 227 216 222 234 240 234 236 240
264 267 262 267 286 280 269 280 314 339 69 64 60 69 63 57 91 92 90 124 130 155 158 155 155 150 132 145 155 161 171 180 198 207 212 215 219 236 243 245 249 239 232 234
262 261 260 265 281 292 282 294 22 19 18 41 65 69 59 44 55 68 67 66 96 131 158 152 149 148 153 160 158 177 188 195 210 219 220 228 236 243 248 246 253 250 236 237
257 264 266 280 309 322 295 253 23 21 351 346 7 324 20 25 33 40 49 58 76 69 88 121 134 143 159 181 182 200 203 213 216 221 218 237 248 253 255 251 250 252 244 243
251 258 262 326 323 299 262 324 16 11 360 355 357 355 14 28 33 27 28 51 76 84 78 96 122 134 152 173 218 225 212 242 223 232 231 229 235 248 257 254 253 254 253 244
253 259 260 360 338 346 16 23 11 3 3 19 19 25 31 37 38 23 21 40 56 76 81 91 115 120 120 153 347 6 282 268 258 244 245 233 227 238 247 250 248 246 249 251
265 268 349 12 15 16 14 11 8 3 343 351 353 12 35 59 48 45 13 33 36 67 87 90 120 137 167 82 60 327 285 277 279 276 261 235 232 239 246 249 251 249 242 246
268 266 303 347 9 3 3 357 341 335 321 333 345 341 344 60 50 85 25 4 353 42 68 86 113 128 152 145 133 259 284 290 278 271 267 251 247 243 246 255 257 267 270 271
275 285 293 317 341 347 349 336 332 331 330 342 346 339 24 17 322 193 169 181 318 128 159 177 143 140 156 135 177 252 269 273 271 266 269 257 254 261 258 254 256 265 277 281
284 303 299 307 329 329 326 320 327 334 339 344 346 351 13 360 335 178 178 186 186 221 232 227 180 176 95 79 266 272 272 272 273 271 263 251 252 266 283 249 236 232 230 241
315 306 296 303 312 321 314 315 319 317 323 343 356 15 3 322 3 70 141 215 220 236 226 212 203 218 277 275 262 275 277 277 282 284 276 265 258 261 269 276 256 234 231 232
335 319 299 294 299 302 303 307 311 324 332 342 345 354 41 62 83 114 225 238 248 250 249 236 230 248 249 259 260 269 270 267 276 283 278 274 273 273 270 268 272 269 252 240
321 306 296 305 305 298 295 294 298 300 315 341 26 37 52 36 333 333 311 243 248 268 274 267 265 281 283 275 272 269 271 275 277 283 279 274 272 278 281 283 284 286 304 249
311 302 297 291 287 288 283 276 274 277 343 31 26 23 46 9 349 344 322 278 243 255 267 273 284 283 276 283 283 271 257 261 265 267 266 274 281 285 286 286 280 276 263 282
296 297 300 287 286 290 297 302 315 341 35 59 32 12 9 12 4 345 334 335 279 262 269 268 273 290 286 283 281 281 279 266 253 260 261 272 276 279 281 282 280 284 277 172
292 303 304 299 295 294 305 319 22 61 86 88 60 17 352 338 341 345 339 339 319 302 297 278 263 273 282 284 279 275 274 270 262 261 265 273 277 275 275 282 290 294 292 131
329 328 318 315 327 333 335 3 42 65 74 58 39 356 354 349 345 336 336 339 321 309 314 319 306 290 290 298 292 272 274 272 266 262 262 255 258 271 277 280 282 280 282 91
340 336 334 345 359 1 357 21 357 16 26 1 355 351 348 335 326 328 337 334 326 324 333 334 319 319 312 307 295 286 281 277 281 280 278 276 279 284 288 300 304 295 283 307
338 332 345 3 5 3 356 2 11 15 23 20 360 341 341 340 333 333 326 320 349 356 332 319 314 323 323 321 293 284 285 280 282 290 291 285 284 292 303 316 322 319 316 317
336 333 342 355 2 13 14 14 21 8 0 352 331 324 320 319 319 323 332 317 324 359 307 313 344 2 344 322 301 305 303 299 298 299 294 294 296 296 296 302 297 278 269 294
336 330 326 325 328 351 333 314 294 276 280 281 288 293 299 302 296 299 304 307 314 350 309 356 16 2 340 314 312 315 316 320 319 314 301 295 292 286 285 292 283 273 280 307
317 313 313 309 307 314 311 313 318 308 280 268 266 274 286 294 290 283 287 255 27 20 313 82 214 312 301 302 308 313 327 334 328 323 323 326 328 326 320 318 328 11 14 359
296 283 291 295 288 271 255 268 316 316 298 284 278 286 286 291 300 319 329 22 101 241 266 192 207 246 272 310 324 329 337 349 349 348 351 349 340 337 341 340 5 19 9 2
294 291 294 290 296 297 304 299 290 303 313 319 323 323 321 326 328 329 276 241 224 227 273 266 208 227 271 309 322 322 327 331 337 330 337 336 337 339 344 356 10 15 3 343
298 296 284 301 308 320 329 332 335 347 351 340 333 337 339 342 334 317 309 302 276 198 236 277 271 260 268 287 308 315 315 321 340 354 354 358 357 0 355 353 346 349 345 347
Height
1461 1457 1454 1455 1454 1451 1454 1457 1464 1463 1463 1461 1460 1464 1468 1471 1474 1477 1480 1484 1487 1489 1492 1494 1496 1497 1499 1500 1501 1502 1503 1504 1505 1505 1506 1506 1506 1507 1507 1507 1507 1507 1507 1507
1466 1457 1455 1456 1451 1451 1451 1451 1454 1457 1460 1459 1461 1464 1468 1471 1473 1476 1479 1483 1486 1488 1490 1492 1494 1495 1497 1498 1499 1500 1501 1502 1503 1503 1503 1504 1504 1504 1504 1504 1504 1504 1504 1504
1473 1461 1459 1463 1452 1450 1451 1448 1452 1460 1461 1459 1463 1466 1469 1472 1474 1476 1479 1482 1484 1487 1488 1490 1492 1493 1495 1496 1497 1498 1499 1499 1500 1501 1501 1501 1501 1502 1501 1501 1501 1501 1501 1500
1471 1470 1483 1460 1446 1446 1448 1450 1451 1454 1459 1462 1466 1468 1470 1473 1473 1476 1479 1482 1484 1486 1487 1488 1490 1492 1493 1494 1495 1496 1497 1497 1498 1498 1498 1498 1499 1499 1498 1498 1499 1498 1498 1497
1472 1474 1468 1455 1448 1448 1452 1457 1457 1459 1462 1465 1466 1468 1471 1474 1475 1476 1479 1482 1483 1485 1486 1487 1488 1490 1491 1493 1493 1494 1494 1495 1495 1496 1496 1496 1495 1496 1496 1496 1496 1496 1495 1494
1471 1478 1479 1464 1452 1451 1454 1463 1462 1462 1466 1466 1466 1470 1474 1475 1476 1477 1478 1480 1481 1483 1484 1485 1487 1488 1489 1490 1491 1491 1492 1492 1492 1493 1493 1493 1492 1493 1493 1493 1493 1493 1492 1491
1472 1475 1468 1461 1455 1454 1468 1472 1466 1467 1468 1468 1470 1472 1474 1475 1476 1477 1478 1478 1479 1481 1482 1483 1485 1485 1486 1488 1489 1489 1489 1489 1489 1489 1490 1490 1490 1490 1490 1490 1490 1489 1489 1488
1470 1476 1475 1464 1461 1466 1471 1469 1469 1470 1471 1470 1472 1472 1473 1474 1474 1476 1476 1478 1478 1479 1480 1482 1483 1483 1484 1485 1486 1487 1486 1486 1486 1486 1486 1486 1486 1486 1487 1486 1486 1485 1485 1485
1469 1472 1469 1467 1468 1469 1470 1470 1470 1471 1472 1472 1472 1472 1473 1473 1474 1475 1477 1477 1478 1479 1479 1480 1481 1482 1482 1482 1483 1484 1483 1483 1483 1483 1482 1483 1483 1483 1483 1483 1483 1482 1482 1481
1465 1465 1466 1467 1468 1470 1470 1471 1471 1471 1471 1471 1471 1472 1472 1472 1473 1474 1475 1476 1477 1477 1478 1478 1479 1479 1480 1480 1481 1481 1480 1480 1480 1479 1479 1479 1480 1480 1480 1479 1479 1479 1478 1478
1465 1466 1467 1468 1469 1470 1470 1470 1470 1470 1471 1471 1471 1471 1472 1472 1472 1473 1473 1474 1475 1475 1475 1476 1476 1477 1478 1478 1479 1478 1478 1477 1476 1476 1476 1476 1476 1476 1476 1476 1475 1475 1474 1474
1467 1468 1469 1469 1470 1470 1470 1470 1470 1470 1470 1470 1471 1471 1471 1471 1471 1471 1472 1472 1472 1473 1473 1474 1474 1474 1475 1476 1476 1476 1475 1475 1474 1474 1473 1473 1472 1472 1472 1472 1472 1472 1471 1471
1468 1468 1468 1468 1469 1469 1469 1469 1469 1470 1470 1470 1470 1469 1469 1469 1469 1469 1469 1469 1470 1471 1471 1471 1471 1472 1472 1473 1473 1473 1472 1472 1472 1472 1471 1470 1469 1469 1469 1469 1468 1468 1467 1467
1469 1469 1468 1468 1468 1468 1468 1468 1468 1468 1469 1469 1468 1468 1467 1467 1467 1466 1466 1467 1467 1468 1468 1469 1469 1469 1469 1469 1469 1469 1469 1470 1469 1469 1468 1468 1467 1466 1466 1465 1465 1463 1463 1463
1467 1468 1466 1466 1466 1466 1466 1467 1466 1467 1467 1467 1467 1466 1466 1465 1465 1464 1464 1464 1464 1465 1466 1466 1466 1466 1466 1466 1466 1466 1466 1466 1466 1466 1465 1465 1464 1464 1463 1463 1462 1461 1460 1460
1466 1466 1464 1464 1465 1465 1465 1465 1465 1465 1466 1466 1465 1465 1465 1464 1463 1462 1461 1461 1461 1462 1462 1463 1463 1463 1463 1463 1463 1463 1463 1463 1463 1462 1462 1462 1461 1461 1460 1459 1459 1458 1457 1457
1466 1465 1463 1464 1464 1464 1464 1464 1464 1464 1465 1465 1465 1464 1464 1462 1461 1460 1459 1459 1459 1459 1460 1460 1460 1460 1460 1461 1460 1460 1460 1460 1460 1459 1459 1459 1458 1458 1458 1457 1457 1456 1455 1454
1465 1464 1464 1464 1463 1463 1464 1464 1464 1464 1464 1464 1464 1463 1462 1461 1460 1459 1458 1457 1457 1457 1457 1457 1457 1457 1457 1457 1457 1457 1457 1457 1457 1456 1456 1455 1455 1455 1455 1454 1454 1453 1453 1452
1464 1464 1464 1463 1463 1463 1463 1463 1464 1464 1464 1463 1463 1463 1462 1461 1460 1459 1458 1457 1456 1455 1455 1455 1454 1454 1454 1454 1455 1454 1454 1454 1454 1453 1453 1452 1452 1452 1452 1452 1451 1451 1450 1449
1465 1464 1464 1464 1463 1463 1463 1463 1463 1463 1463 1463 1463 1462 1462 1461 1460 1459 1457 1456 1456 1455 1454 1453 1453 1452 1452 1452 1451 1451 1451 1451 1451 1450 1450 1450 1450 1449 1449 1448 1448 1448 1447 1447
1465 1465 1464 1464 1463 1463 1463 1463 1463 1463 1462 1462 1462 1462 1461 1460 1459 1458 1457 1456 1455 1454 1453 1452 1451 1451 1450 1449 1449 1449 1448 1448 1448 1448 1448 1447 1447 1447 1446 1446 1446 1445 1445 1445
1465 1464 1464 1463 1463 1463 1463 1463 1463 1462 1462 1462 1462 1461 1460 1459 1459 1458 1457 1456 1455 1453 1452 1452 1450 1449 1448 1447 1447 1446 1446 1446 1445 1445 1445 1445 1444 1444 1444 1444 1444 1443 1443 1443
1464 1464 1463 1463 1463 1463 1463 1462 1462 1462 1461 1461 1461 1460 1459 1458 1458 1457 1456 1455 1454 1453 1452 1451 1449 1448 1447 1446 1446 1445 1444 1443 1443 1443 1442 1442 1442 1442 1442 1442 1442 1442 1441 1441
1463 1463 1463 1463 1462 1462 1461 1461 1461 1461 1461 1460 1459 1459 1458 1457 1457 1456 1456 1455 1453 1452 1451 1450 1448 1447 1447 1446 1445 1444 1443 1442 1441 1440 1440 1440 1440 1440 1440 1440 1440 1440 1440 1440
1463 1462 1462 1461 1461 1461 1460 1460 1460 1460 1460 1459 1458 1458 1457 1456 1456 1455 1454 1453 1452 1451 1451 1449 1448 1447 1446 1445 1444 1443 1441 1440 1440 1439 1439 1439 1439 1439 1439 1439 1438 1438 1438 1438
1462 1462 1461 1461 1460 1460 1459 1459 1459 1459 1459 1458 1458 1457 1456 1456 1455 1454 1454 1453 1452 1451 1450 1449 1448 1447 1446 1445 1444 1443 1442 1441 1440 1439 1439 1439 1439 1438 1438 1437 1437 1437 1436 1436
1461 1461 1460 1460 1459 1459 1459 1458 1458 1458 1458 1457 1457 1456 1455 1455 1454 1454 1453 1452 1451 1450 1449 1448 1447 1447 1446 1445 1444 1443 1442 1441 1440 1440 1439 1439 1438 1437 1437 1436 1436 1435 1434 1434